sat.trackr.live / text

‹ back to catalog

ORBCOMM FM06

NORAD 25118 · 1997-084G

PAYLOAD ACTIVE UNKNOWN

§ Identity

Operator
Country
ORB
Launch date
1997-12-23
Launch site
ERAS
Launch vehicle
Mass (kg)
RCS (m²)
0.51

Purposes: comms

External: N2YO · Heavens-Above · Gunter

§ Orbital elements

Epoch: 2026-05-25T02:04:33.650112Z

Period
99.48 min
Inclination
45.0120°
Eccentricity
0.0002273
Mean motion
14.47495036 rev/d
Perigee alt
732.2 km
Apogee alt
735.5 km
Semi-major
7,112.0 km
B*
2.4784e-4
RAAN
163.9149°
Arg perigee
258.1559°
Mean anomaly
138.6072°
Rev number
49,104

§ Raw data

ORBCOMM FM061 25118U 97084G   26145.08650058  .00000774  00000+0  24784-3 0  99902 25118  45.0120 163.9149 0002273 258.1559 138.6072 14.47495036491041

JSON: /api/v1/satellites/25118 · /tle

For live sub-satellite position, see the globe view (requires WebGL).

§ Visibility from observer

Set your observer location to see the next 7 days of passes ≥ 10°. The values pass through the URL so the page stays shareable.

No JS? Fill the form by hand. The geolocation button needs JavaScript.